Regional Weather Roundup
Issued by NWS

Home | Current Version | Previous Version | Graphics & Text | Print | Product List | Glossary Off
Versions: 1 2 3 4 5 6 7 8 9 10 11 12 13 14 15 16 17 18 19 20 21 22 23 24 25 26 27 28 29 30 31 32 33 34 35 36 37 38 39 40 41 42 43 44 45 46 47 48 49 50

000
ASUS43 KMKX 032210
RWRWI

WISCONSIN REGIONAL WEATHER ROUNDUP
NATIONAL WEATHER SERVICE MILWAUKEE/SULLIVAN WI
400 PM CST TUE MAR 03 2015

NOTE: "FAIR" INDICATES FEW OR NO CLOUDS BELOW 12,000 FEET WITH NO
SIGNIFICANT WEATHER AND/OR OBSTRUCTIONS TO VISIBILITY.

WIZ001-002-006>008-014>016-023>028-032300-
NORTHWEST WISCONSIN

CITY           SKY/WX    TMP DP  RH WIND       PRES   REMARKS
SUPERIOR ARPT  LGT SNOW  23  10  57 NW24G32   29.67R WCI   7
ASHLAND        FLURRIES  27  18  69 W16G24    29.59R WCI  15
HAYWARD        LGT SNOW  25  16  68 NW10G18   29.61R WCI  15
SIREN          SUNNY     27   9  46 NW16G25   29.67R HAZE    WCI  15
CUMBERLAND     MIX PCPN  27  19  74 W16G29    29.64R WCI  14
RICE LAKE      CLOUDY    28  19  70 W10G17    29.64S WCI  18
CHETEK         CLOUDY    28  19  71 W8        29.63S WCI  19
LADYSMITH      CLOUDY    28  20  73 W14       29.61R WCI  17
EAU CLAIRE     CLOUDY    29  19  66 NW16G23   29.65R WCI  17
MENOMONIE      CLOUDY    29  20  69 W15       29.67R WCI  18
NEW RICHMOND   MOSUNNY   27  15  59 NW16G24   29.68R WCI  15
OSCEOLA        MOSUNNY   28  13  52 W20G26    29.73R WCI  15
$$

WIZ003>005-009-010-017-018-032300-
NORTH CENTRAL WISCONSIN

CITY           SKY/WX    TMP DP  RH WIND       PRES   REMARKS
MANITOWISH WTR LGT SNOW  24  19  80 W9G17     29.51R WCI  14
ARBOR VITAE    FLURRIES  25  18  76 NW9G16    29.51S WCI  15
WOODRUFF       FLURRIES  25  18  76 NW9G16    29.51S WCI  15
RHINELANDER    FLURRIES  25  17  72 W14       29.51R WCI  13
EAGLE RIVER    LGT SNOW  24  16  70 W14G21    29.49S WCI  12
LAND O LAKES   FLURRIES  26  19  77 W8        29.49S WCI  17
PHILLIPS       CLOUDY    25  18  75 W9G17     29.55R WCI  15
TOMAHAWK       PTSUNNY   25  18  74 W10       29.54S HAZE    WCI  15
MEDFORD        CLOUDY    26  18  72 W12       29.56S WCI  16
MERRILL        CLOUDY    27  19  71 NW15G25   29.55R WCI  15
$$

WIZ029-030-035-036-043>047-032300-
CENTRAL WISCONSIN

CITY           SKY/WX    TMP DP  RH WIND       PRES   REMARKS
WAUSAU         CLOUDY    27  19  72 W16       29.55R WCI  15
MOSINEE        CLOUDY    27  19  74 W14G20    29.57S WCI  15
MARSHFIELD     CLOUDY    28  20  71 W15       29.60R WCI  16
STEVENS POINT  CLOUDY    26  19  75 W10G17    29.59R WCI  17
WAUPACA        CLOUDY    30  22  71 W13G18    29.60R WCI  20
WAUTOMA        CLOUDY    28  23  81 W12       29.62R WCI  18
WISC RAPIDS    CLOUDY    29  20  69 W10       29.62R WCI  20
CAMP DOUGLAS   CLOUDY    30  27  86 W14       29.63R WCI  20
$$

WIZ011>013-019>022-031-037>040-048>050-032300-
NORTHEAST WISCONSIN

CITY           SKY/WX    TMP DP  RH WIND       PRES   REMARKS
ANTIGO         CLOUDY    26  19  74 W14       29.52R WCI  14
SHAWANO        CLOUDY    30  21  68 W8        29.57R WCI  23
OCONTO         CLOUDY    28  22  77 W14G21    29.55R WCI  17
STURGEON BAY   CLOUDY    27  19  74 W12G17    29.55R WCI  16
GREEN BAY      CLOUDY    28  21  75 W12       29.57R WCI  18
MANITOWOC      CLOUDY    28  24  85 W20G25    29.58R WCI  15
APPLETON       CLOUDY    27  21  80 W15       29.59R WCI  15
CLINTONVILLE   CLOUDY    30  21  69 W9G17     29.58R WCI  22
OSHKOSH        CLOUDY    28  21  75 W15       29.59R WCI  16
$$

WIZ032>034-041-042-053>061-032300-
SOUTHWEST WISCONSIN

CITY           SKY/WX    TMP DP  RH WIND       PRES   REMARKS
LA CROSSE      CLOUDY    32  23  69 NW14      29.68R WCI  22
SPARTA         CLOUDY    31  23  73 W13G18    29.67R WCI  21
VIROQUA        CLOUDY    29  24  79 W15G21    29.65R WCI  18
BOSCOBEL       CLOUDY    33  23  66 VRB7      29.70R WCI  27
PRAIRIE DU CHI CLOUDY    32  23  69 W16       29.71R WCI  21
PLATTEVILLE    CLOUDY    31  26  81 W12       29.68R WCI  22
$$

WIZ056-057-062-063-064-067-068-032300-
SOUTH CENTRAL WISCONSIN

CITY           SKY/WX    TMP DP  RH WIND       PRES   REMARKS
REEDSBURG      CLOUDY    29  23  78 W13       29.65R WCI  19
BARABOO/DELLS  CLOUDY    29  22  75 W12       29.64R WCI  19
LONE ROCK      CLOUDY    31  23  72 NW12      29.68R WCI  22
MINERAL POINT  CLOUDY    32  27  80 W9G20     29.66R WCI  24
MADISON        CLOUDY    31  23  72 W12       29.66R WCI  22
MIDDLETON      CLOUDY    32  25  76 W13       29.66R WCI  22
WATERTOWN      CLOUDY    30  26  84 W14       29.64R WCI  20
MONROE         CLOUDY    32  28  86 W14       29.66R WCI  22
JANESVILLE     CLOUDY    34  28  80 W18       29.65R WCI  23
$$

WIZ051-052-058>065-066-070>072-032300-
SOUTHEAST WISCONSIN

CITY           SKY/WX    TMP DP  RH WIND       PRES   REMARKS
MILWAUKEE      CLOUDY    34  27  75 W14G23    29.63R WCI  25
WAUKESHA       CLOUDY    28  25  86 W16G23    29.63R WCI  17
MILWAUKEE/TIMM CLOUDY    30  25  80 W15G23    29.62R WCI  19
RACINE         CLOUDY    33  27  78 W17G24    29.64R WCI  22
BURLINGTON     CLOUDY    31  27  84 W10       29.64R WCI  22
KENOSHA        CLOUDY    33  28  81 W17G24    29.63R WCI  22
FOND DU LAC    CLOUDY    29  22  75 W15G21    29.61R WCI  18
SHEBOYGAN      CLOUDY    29  22  75 W20G26    29.59R WCI  16
WEST BEND      CLOUDY    30  23  74 W14G22    29.60S WCI  20
JUNEAU         CLOUDY    29  23  80 W10G16    29.63R WCI  19
$$

LSZ147-162-032300-
LAKE SUPERIOR

STATION/POSITION TIME  TEMP    WIND        PRES    WAVE
                       AIR SEA DIR/SP/G            HT/PER
                 (UTC) (F)     (DEG/KT/KT) (MB)    (FT/S)
DEVILS ISLAND    2200   26     290/ 28/ 32 1002.0R
PORT WING        2200   24     280/ 23     1003.4R
SAXON HARBOR     2100   28     290/  5/ 11 1001.4
$$

LMZ867-665-643>646-032300-
LAKE MICHIGAN

STATION/POSITION TIME  TEMP    WIND        PRES    WAVE
                       AIR SEA DIR/SP/G            HT/PER
                 (UTC) (F)     (DEG/KT/KT) (MB)    (FT/S)
NORTHPORT PIER   2108   29     260/  4/ 15  999.3F
SISTER BAY       2113   37     290/  9/ 11   N/A
KEWAUNEE LAKESHO 2100   29     280/ 11/ 19  999.8R
SHEBOYGAN LAKESH 2200   30     280/  6/  8 1003.3R
PORT WASHINGTON  2100   32     270/  4/  6 1002.7R
MILWAUKEE LAKESH 2100   33     270/ 12/ 19   N/A
KENOSHA   LAKESH 2200   33     280/ 10/ 17 1004.1R
$$

TC  - TEMPERATURE IN CELSIUS
VSB - VISIBILITY IN STATUTE MILES
WCI - WIND CHILL INDEX
HX  - HEAT INDEX



USA.gov is the U.S. government's official web portal to all federal, state and local government web resources and services.